Regional Weather Roundup
Issued by NWS

Home | Current Version | Previous Version | Graphics & Text | Print | Product List | Glossary On
Versions: 1 2 3 4 5 6 7 8 9 10 11 12 13 14 15 16 17 18 19 20 21 22 23 24 25 26 27 28 29 30 31 32 33 34 35 36 37 38 39 40 41 42 43 44 45 46 47 48 49 50
000
ASUS43 KOAX 262302
RWRNE

WEATHER ROUNDUP FOR NEBRASKA
NATIONAL WEATHER SERVICE OMAHA NE
600 PM CDT SUN APR 26 2015

NOTES: SATELLITE DATA IS BEING USED TO AUGMENT CLOUD COVER ABOVE
       12000 FEET.
       "FAIR" INDICATES FEW OR NO CLOUDS BELOW 12,000 FEET WITH NO
       SIGNIFICANT WEATHER AND/OR OBSTRUCTIONS TO VISIBILITY.

  * THESE STATIONS DO NOT REPORT WEATHER SUCH AS RAIN...SNOW OR FOG.

NEZ001>004-019>022-054>056-270000-
NEBRASKA PANHANDLE

CITY           SKY/WX    TMP DP  RH WIND       PRES   REMARKS
SCOTTSBLUFF    CLOUDY    47  32  56 E13       30.00R
ALLIANCE       CLOUDY    49  40  71 SE12      30.00R
CHADRON        CLOUDY    51  46  83 N6        30.01R
KIMBALL        CLOUDY    41  41  99 E14       29.96R FOG
SIDNEY         FOG       42  41  96 E13       29.99R VSB 1
$$

NEZ057>060-069>072-079>082-270000-
SOUTHWEST NEBRASKA

CITY           SKY/WX    TMP DP  RH WIND       PRES   REMARKS
IMPERIAL       CLOUDY    46  42  86 E12       29.98S
MCCOOK         CLOUDY    52  43  71 NE10      29.97S
$$

NEZ005>010-023>029-035>040-094-270000-
NORTH CENTRAL NEBRASKA

CITY           SKY/WX    TMP DP  RH WIND       PRES   REMARKS
VALENTINE      PTSUNNY   59  36  42 E13       30.01S
AINSWORTH      MOSUNNY   61  35  38 E12       30.01S
BROKEN BOW     CLOUDY    57  40  52 E10G25    30.00R
ORD            MOSUNNY   59  38  45 SE13      29.99R
$$

NEZ041-046>049-061>064-073>077-083>087-270000-
SOUTH CENTRAL NEBRASKA

CITY           SKY/WX    TMP DP  RH WIND       PRES   REMARKS
GRAND ISLAND   PTSUNNY   57  41  55 E12       30.00R
AURORA         MOSUNNY   60  43  53 E14G21    29.99R
HASTINGS       CLOUDY    57  42  57 E10       29.97S
KEARNEY *      CLOUDY    55  43  62 E10       29.99S
YORK           MOSUNNY   59  43  55 E13G18    29.99R
$$

NEZ011>018-030>034-042>045-270000-
NORTHEAST NEBRASKA

CITY           SKY/WX    TMP DP  RH WIND       PRES   REMARKS
NORFOLK        SUNNY     63  32  31 E10       30.01R
ALBION         SUNNY     61  32  33 E12G17    30.01R
BLAIR          SUNNY     62  33  33 E16       30.00S
COLUMBUS *     SUNNY     61  37  41 E15       30.02S
TEKAMAH        SUNNY     65  34  31 E10       30.01R
$$

NEZ050>053-065>068-078-088>093-270000-
SOUTHEAST NEBRASKA

CITY           SKY/WX    TMP DP  RH WIND       PRES   REMARKS
LINCOLN        SUNNY     63  39  41 E15G23    30.00R
OMAHA EPPLEY   MOSUNNY   63  35  35 E12       30.00S
BEATRICE       SUNNY     61  39  45 E17G23    29.97S
FALLS CITY     SUNNY     62  38  40 E16       29.95S
NEBRASKA CITY  SUNNY     62  27  26 E14       29.98R
PLATTSMOUTH    SUNNY     63  29  28 E12G20    29.99R
$$

NEZ044-045-051>053-067-270000-
OMAHA AREA

CITY           SKY/WX    TMP DP  RH WIND       PRES   REMARKS
OMAHA EPPLEY   MOSUNNY   63  35  35 E12       30.00S
BLAIR          SUNNY     62  33  33 E16       30.00S
OFFUTT AFB     SUNNY     63  35  35 NE10G20   29.99R
PLATTSMOUTH    SUNNY     63  29  28 E12G20    29.99R
WAHOO          FAIR      63  33  32 E12G20    30.00R
$$



USA.gov is the U.S. government's official web portal to all federal, state and local government web resources and services.